CAPE
93 168 0 0 0 0 0 0 0 0 0 201 531 941 851 901 682 626 589 474 413 432 204 0 0 0 15 2 0 0 34 274 335 164 873 554 962 1200 1211 1280 1444 1033 1212 1223
39 50 0 2 0 0 0 0 4 11 0 24 344 908 947 937 965 722 751 741 707 626 617 394 74 10 0 0 0 0 12 303 256 1002 674 748 482 1085 1004 1228 1121 1924 1776 1525
0 0 0 0 0 0 0 0 0 0 43 50 428 822 961 948 1006 980 771 804 755 695 658 646 472 385 73 0 0 0 162 112 883 533 779 894 1283 1508 1418 1325 1336 1576 1947 1336
0 0 0 0 0 0 0 0 0 0 0 0 279 788 152 970 999 1010 862 839 710 639 612 663 809 587 192 0 0 30 157 395 942 1433 1484 1392 1542 1220 1080 989 1150 1221 1469 2024
0 0 0 0 0 0 0 0 0 0 0 0 181 430 582 665 1004 920 965 806 757 666 558 504 521 481 152 4 11 255 198 283 690 1345 1380 1591 1448 1735 1504 1539 1249 1288 1669 1386
0 0 0 0 0 0 0 0 0 0 0 2 286 38 35 1 579 970 905 914 814 821 788 685 498 403 270 69 36 254 588 939 1009 1659 1844 1638 1839 1573 1851 1504 1028 1517 2122 1939
0 0 0 0 0 0 0 0 0 2 0 9 94 45 10 0 84 841 706 864 888 910 1067 1060 907 604 493 201 214 295 490 836 1319 1380 1595 2280 1640 2291 1828 1806 1492 1785 1831 1297
0 0 0 0 0 0 0 0 1 6 4 13 135 73 144 31 60 343 388 534 757 958 1097 1165 1246 1170 884 633 553 506 686 1079 1555 1629 1586 1653 2580 2048 2211 2204 2150 1644 1500 1664
5 15 0 0 0 0 0 5 0 0 1 71 182 183 53 4 2 26 220 622 492 660 958 1119 1104 1159 1292 1185 1098 1017 1092 1476 1709 1726 1814 2003 2386 2787 2349 2142 2156 1955 1636 1535
0 23 6 0 0 0 0 0 0 2 15 10 46 53 0 10 130 281 111 374 400 568 568 609 815 1102 1167 1302 1473 1372 1499 1977 1834 1844 1988 2163 2468 2597 2716 2344 2340 2078 1833 2212
0 0 0 37 27 13 2 0 0 7 1 1 71 215 0 0 0 0 363 294 595 688 596 781 1454 1856 1646 1338 1507 1456 1712 2134 1960 1580 1556 1814 2013 2128 2442 2420 2236 1888 1733 1363
0 0 0 8 9 0 0 0 0 5 18 1 70 143 0 0 16 98 287 373 686 856 1025 1669 1901 1864 1811 1799 1663 1535 1351 1305 1293 1372 1582 1400 1683 1627 1540 1456 1679 2030 2340 2476
0 1 0 9 1 0 0 0 0 0 0 41 170 60 0 0 3 32 311 993 1375 1373 1583 1771 1866 2047 2031 1809 1708 1551 1449 1427 1373 1406 1333 1310 1242 1092 925 1089 2212 2170 2511 2893
0 0 0 0 0 0 4 0 0 0 0 1 106 45 0 0 0 56 55 1297 1533 1586 1698 1819 2182 2314 2300 2170 2172 1994 1834 1873 1878 1997 2322 1967 1904 1866 1773 1663 1701 2141 2675 2745
0 0 0 0 3 0 0 0 0 0 0 0 2 1 9 0 16 115 1178 1506 1580 1711 1797 1964 2031 2300 2244 2314 2175 2119 2485 2600 2940 2882 2553 2781 2778 2934 2914 2810 2678 2613 2854 2719
0 0 0 0 0 0 0 0 0 0 0 0 0 0 0 462 578 1299 1400 1401 1563 1644 1697 1930 2241 2397 2590 2768 2676 2787 2915 2810 2690 2571 2839 2965 2941 2939 2821 2934 2945 3060 2782 2401
0 0 0 0 10 1 0 2 2 0 0 0 0 0 26 343 499 653 555 1268 1406 1818 2155 2224 2289 2499 2387 2663 2515 2387 2508 2631 2832 2623 2350 2132 2154 2281 2159 2188 2127 2279 2387 2163
7 11 1 2 2 5 16 12 0 0 0 0 0 0 0 26 458 573 579 407 1988 2102 2286 2436 2261 2210 1773 1489 1587 1786 1764 1745 1489 1168 913 789 879 1191 1504 1542 1736 1781 1494 1471
0 1 11 36 22 1 7 2 0 0 0 0 0 0 0 121 698 844 1012 2048 2149 2285 2236 1805 1146 993 1058 973 684 349 260 237 211 181 172 132 127 121 140 209 438 741 1226 1495
0 0 1 18 0 0 7 13 0 0 0 0 0 0 0 454 772 1579 1937 2104 2113 1953 1234 915 794 590 253 216 198 164 89 31 0 0 0 0 2 1 0 0 20 90 134 349
112 62 30 25 4 0 0 0 1 0 30 94 2 10 133 494 681 1727 1920 1975 1368 740 633 634 300 107 25 2 0 2 0 0 0 0 0 0 0 0 0 0 0 0 0 4
64 225 146 88 89 38 24 2 6 0 18 22 51 26 363 1362 1652 1871 1160 459 399 412 221 126 30 5 0 0 0 0 0 0 0 0 0 0 0 0 0 0 0 0 0 0
0 44 161 262 145 105 68 7 24 0 0 279 82 245 536 1203 1186 678 397 398 474 164 62 34 17 8 0 0 0 0 0 0 0 0 0 0 0 0 0 0 0 0 0 0
0 1 31 138 126 123 131 78 3 0 27 50 133 89 526 703 749 663 257 438 322 103 27 32 53 34 0 0 0 0 0 0 0 0 0 0 0 0 0 0 0 0 0 0
62 109 112 82 125 95 103 103 26 4 0 14 125 132 431 439 574 395 276 410 250 30 0 0 0 0 0 0 0 0 0 0 0 0 0 0 0 0 0 2 1 0 0 0
23 63 129 221 235 172 154 117 81 20 1 0 0 79 191 320 372 260 255 384 239 56 38 0 0 0 0 0 0 0 0 0 0 0 0 0 0 0 0 0 0 0 0 0
CIN
-3 -3 -0 -0 -0 -0 -0 -0 -0 -0 -0 -2 -1 -41 -62 -59 -105 -137 -134 -115 -90 -52 -65 -0 -0 -0 -98 -84 -0 -0 -157 -65 -53 -140 -14 -20 -1 -1 -5 -14 -13 -25 -18 -3
-17 -3 -0 -20 -0 -0 -0 -0 -2 -4 -0 -22 -7 -25 -55 -46 -46 -117 -138 -123 -100 -82 -65 -59 -122 -33 -0 -0 -0 -0 -181 -88 -122 -19 -25 -17 -26 -2 -8 -10 -17 -6 -9 -12
-0 -0 -0 -0 -0 -0 -0 -0 -0 -0 -31 -31 -10 -32 -53 -59 -23 -43 -72 -104 -68 -97 -85 -63 -82 -130 -151 -0 -0 -0 -108 -149 -39 -57 -19 -12 -1 -3 -4 -1 -3 -5 -5 -14
-0 -0 -0 -0 -0 -0 -0 -0 -0 -0 -0 -0 -16 -12 -146 -77 -51 -19 -30 -53 -78 -85 -112 -108 -93 -119 -220 -0 -0 -212 -167 -115 -51 -10 -6 -6 -7 -10 -17 -8 -5 -6 -12 -12
-0 -0 -0 -0 -0 -0 -0 -0 -0 -0 -0 -0 -13 -9 -133 -61 -43 -26 -28 -45 -66 -87 -107 -136 -145 -141 -216 -167 -325 -179 -189 -150 -63 -21 -15 -6 -9 -1 -11 -5 -7 -4 -12 -22
-0 -0 -0 -0 -0 -0 -0 -0 -0 -0 -0 -1 -53 -22 -188 -86 -113 -56 -28 -28 -36 -59 -92 -119 -152 -165 -188 -248 -286 -195 -150 -88 -67 -7 -25 -20 -6 -8 -9 -9 -38 -11 -8 -11
-0 -0 -0 -0 -0 -0 -0 -0 -0 -28 -2 -9 -41 -54 -58 -0 -215 -68 -41 -6 -19 -42 -67 -86 -111 -153 -181 -226 -211 -198 -181 -137 -67 -58 -26 -15 -28 -14 -22 -11 -10 -2 -8 -42
-0 -0 -0 -0 -0 -0 -0 -0 -25 -48 -2 -31 -6 -12 -52 -141 -131 -85 -24 -4 -14 -6 -35 -63 -56 -79 -111 -133 -141 -145 -117 -107 -81 -73 -71 -47 -9 -22 -22 -22 -15 -17 -7 -3
-39 -17 -0 -0 -0 -0 -0 -8 -0 -0 -27 -7 -29 -100 -231 -79 -35 -119 -0 -26 -3 -3 -9 -20 -42 -51 -34 -56 -58 -50 -31 -58 -89 -88 -71 -65 -31 -8 -18 -25 -11 -22 -24 -17
-0 -13 -34 -0 -0 -0 -0 -0 -0 -2 -4 -6 -8 -197 -0 -65 -53 -14 -2 -8 -9 -7 -2 -4 -7 -13 -35 -23 -19 -32 -32 -41 -90 -89 -83 -68 -54 -40 -36 -38 -34 -38 -35 -20
-0 -0 -0 -4 -12 -18 -6 -0 -0 -22 -13 -20 -12 -68 -0 -74 -0 -12 -28 -29 -26 -35 -48 -53 -55 -67 -59 -37 -8 -33 -42 -27 -54 -99 -100 -91 -73 -70 -64 -56 -65 -81 -82 -88
-0 -0 -11 -51 -60 -0 -0 -0 -0 -30 -13 -37 -23 -111 -0 -0 -241 -244 -128 -44 -31 -44 -58 -58 -87 -91 -94 -83 -47 -29 -68 -76 -85 -89 -98 -103 -73 -81 -69 -81 -62 -63 -63 -64
-0 -1 -0 -31 -10 -0 -1 -0 -0 -0 -0 -1 -4 -85 -0 -0 -219 -184 -194 -19 -43 -54 -65 -84 -89 -102 -110 -112 -94 -90 -87 -84 -86 -86 -99 -109 -92 -96 -104 -76 -7 -18 -9 -12
-0 -0 -0 -0 -0 -0 -13 -0 -0 -0 -0 -24 -32 -184 -0 -0 -0 -187 -200 -33 -41 -60 -66 -63 -73 -75 -76 -81 -72 -77 -65 -55 -40 -6 -8 -11 -23 -6 -12 -28 -30 -10 -2 -3
-0 -0 -0 -0 -8 -0 -0 -0 -0 -0 -0 -0 -11 -2 -201 -0 -121 -135 -24 -39 -32 -16 -46 -49 -57 -70 -73 -75 -75 -47 -29 -63 -65 -54 -31 -23 -17 -14 -15 -16 -17 -14 -5 -2
-0 -0 -0 -0 -0 -0 -0 -0 -0 -0 -0 -0 -0 -0 -0 -75 -48 -4 -6 -5 -23 -29 -13 -15 -55 -52 -51 -61 -55 -61 -64 -77 -84 -74 -53 -33 -20 -18 -9 -6 -7 -8 -9 -14
-0 -0 -0 -4 -5 -0 -0 -1 -1 -0 -0 -0 -0 -0 -5 -28 -23 -28 -41 -17 -8 -9 -28 -36 -20 -12 -55 -61 -89 -95 -73 -49 -41 -52 -70 -71 -51 -27 -29 -30 -34 -21 -13 -19
-3 -2 -2 -3 -2 -2 -7 -7 -0 -0 -0 -0 -0 -0 -0 -6 -15 -42 -66 -60 -19 -23 -31 -19 -18 -23 -86 -152 -169 -160 -158 -141 -154 -187 -225 -230 -187 -109 -54 -43 -22 -19 -39 -40
-0 -1 -6 -6 -3 -4 -18 -16 -0 -0 -0 -0 -0 -0 -0 -35 -27 -39 -25 -20 -34 -56 -55 -44 -124 -178 -198 -242 -297 -356 -383 -384 -397 -414 -423 -450 -449 -437 -403 -333 -204 -87 -18 -8
-0 -0 -0 -4 -0 -0 -14 -7 -0 -0 -0 -0 -0 -0 -0 -17 -28 -7 -9 -27 -60 -60 -91 -169 -206 -253 -322 -348 -375 -406 -438 -492 -0 -0 -0 -0 -513 -578 -0 -0 -522 -389 -324 -155
-4 -14 -7 -6 -13 -0 -0 -0 -1 -0 -1 -26 -5 -91 -10 -22 -25 -22 -29 -39 -75 -118 -163 -174 -241 -337 -443 -326 -0 -335 -0 -0 -0 -0 -0 -0 -0 -0 -0 -0 -0 -0 -0 -336
-6 -3 -3 -8 -10 -81 -30 -2 -3 -0 -7 -35 -40 -43 -3 -9 -12 -24 -70 -114 -134 -180 -234 -298 -405 -500 -0 -0 -0 -0 -0 -0 -0 -0 -0 -0 -0 -0 -0 -0 -0 -0 -0 -0
-0 -2 -5 -1 -6 -23 -12 -23 -20 -0 -0 -9 -24 -5 -5 -14 -20 -76 -131 -135 -170 -207 -270 -333 -410 -495 -0 -0 -0 -0 -0 -0 -0 -0 -0 -0 -0 -0 -0 -0 -0 -0 -0 -0
-0 -1 -2 -6 -7 -7 -7 -11 -20 -0 -23 -32 -3 -8 -5 -15 -18 -65 -112 -129 -166 -186 -277 -330 -347 -391 -0 -0 -0 -0 -0 -0 -0 -0 -0 -0 -0 -0 -0 -0 -0 -0 -0 -0
-24 -32 -12 -5 -10 -9 -12 -3 -9 -123 -4 -36 -35 -12 -3 -9 -22 -65 -89 -115 -172 -196 -0 -0 -0 -0 -0 -0 -0 -0 -0 -0 -0 -0 -0 -0 -0 -0 -0 -1 -1 -1 -2 -0
-63 -56 -21 -14 -43 -12 -7 -20 -12 -23 -38 -0 -0 -42 -8 -8 -22 -53 -110 -115 -174 -217 -274 -0 -0 -0 -0 -0 -0 -0 -0 -0 -0 -0 -0 -0 -0 -0 -0 -0 -0 -0 -0 -0
Wind_Speed
21 23 19 14 15 14 14 10 13 16 16 15 16 18 19 20 22 24 24 24 24 24 24 25 27 29 25 16 17 25 30 20 19 26 25 21 22 14 14 13 9 12 12 12
24 23 10 13 17 17 17 14 13 14 14 14 14 17 16 16 18 21 23 24 25 25 25 26 27 29 29 30 33 35 33 31 31 27 24 18 17 13 11 9 8 9 10 10
28 22 27 23 21 22 22 20 18 14 12 11 13 13 14 13 15 18 20 22 23 24 26 27 28 29 29 32 33 34 31 29 27 24 20 15 13 7 11 6 8 7 8 8
28 26 17 23 23 22 25 19 23 8 10 7 12 5 13 11 10 15 19 21 21 23 24 25 27 27 28 30 31 31 26 26 23 21 20 13 10 8 8 7 7 7 7 7
26 22 22 24 25 24 27 25 8 14 14 17 14 8 14 9 3 21 20 22 22 22 23 22 24 25 25 27 27 26 24 23 21 19 21 17 16 9 8 11 8 7 7 6
22 19 22 25 22 8 20 18 16 18 15 16 10 7 4 3 11 12 23 20 20 21 21 21 23 24 23 24 24 22 21 21 19 18 17 18 18 15 18 17 26 9 10 7
20 18 17 9 19 17 20 17 16 16 23 22 9 9 9 6 18 21 18 19 19 19 20 20 21 21 20 21 21 19 19 19 17 16 15 14 17 14 17 17 10 12 5 5
15 13 10 13 16 22 22 21 14 10 20 10 8 10 13 11 21 39 26 22 20 17 17 16 17 17 18 18 19 19 18 16 14 13 12 14 13 13 13 16 18 21 19 16
15 12 9 9 17 21 22 20 26 21 14 2 11 13 20 24 24 34 22 39 24 17 16 14 16 16 15 17 17 16 15 15 14 11 9 9 11 9 8 11 10 14 19 14
18 6 12 9 10 13 18 22 21 21 21 23 16 18 17 26 19 7 12 17 18 15 14 11 11 14 12 12 14 13 12 11 13 12 11 10 8 9 9 12 11 11 31 29
25 24 4 17 14 19 17 24 24 25 24 20 20 19 8 11 21 20 4 15 14 12 13 13 15 16 15 10 11 11 9 7 10 12 9 6 6 8 9 8 6 7 28 30
25 27 21 11 8 13 26 28 26 26 24 29 27 15 9 3 25 2 20 15 11 12 13 15 16 17 17 16 13 11 11 10 8 7 4 8 10 9 8 10 7 7 16 4
24 24 24 22 23 27 21 18 23 27 25 18 24 20 16 16 14 14 26 18 10 13 14 15 16 17 17 17 15 13 11 9 7 8 8 9 10 10 11 12 13 20 13 4
26 29 26 26 11 9 19 18 21 24 26 26 21 16 4 13 14 32 34 19 13 13 13 13 15 16 16 16 17 16 15 13 11 10 7 5 6 3 5 9 16 15 3 4
27 33 32 31 25 23 25 28 26 26 27 27 15 13 8 20 21 32 22 16 13 12 11 11 13 14 15 14 15 15 16 17 18 16 14 14 13 14 15 17 18 20 19 14
30 33 31 31 28 27 28 24 27 29 29 30 29 26 20 14 15 14 13 13 11 10 11 11 12 12 13 13 14 16 17 18 17 16 17 17 16 16 14 16 20 22 23 23
13 24 31 31 26 27 27 21 24 26 27 29 30 26 15 10 7 6 8 6 7 10 9 9 9 11 12 12 14 15 16 17 18 18 18 19 18 19 18 19 19 19 20 24
29 23 24 31 29 29 26 26 26 29 29 29 29 25 13 15 12 14 12 5 6 7 8 9 10 12 13 13 15 16 18 19 19 20 21 21 22 22 23 22 18 18 19 20
36 33 31 27 26 30 30 25 29 24 27 23 25 23 13 8 10 14 11 9 8 8 8 10 11 12 13 14 16 18 19 20 21 22 22 22 23 24 24 25 26 27 27 20
34 33 35 31 35 37 31 28 23 24 32 30 23 14 12 5 8 5 7 7 8 9 9 9 10 12 13 15 16 18 20 21 23 24 24 25 26 26 27 28 27 26 27 26
32 27 34 36 33 37 31 32 19 24 24 21 10 10 6 7 8 6 9 8 10 9 9 9 11 13 15 17 17 18 20 23 24 25 25 26 26 27 26 26 27 28 26 26
41 36 28 31 37 47 35 26 25 20 19 19 16 14 7 8 9 10 10 8 7 7 8 10 11 14 17 18 18 20 22 24 25 25 25 24 24 24 25 27 26 24 22 22
45 41 36 25 28 22 24 28 21 16 19 18 9 10 5 5 8 9 8 8 6 6 7 9 11 14 16 18 20 22 22 23 24 24 24 23 22 22 23 25 26 23 25 24
41 40 45 40 34 23 18 20 16 18 23 14 14 9 2 5 7 6 6 6 6 6 7 9 10 13 16 18 20 22 23 23 23 23 23 22 22 21 23 25 24 26 26 27
37 34 36 37 35 36 31 24 15 16 21 18 18 18 3 4 7 6 4 4 5 6 9 11 13 16 18 20 21 22 23 23 23 23 22 24 25 26 26 25 27 23 22 25
36 33 31 26 26 30 30 27 27 21 22 23 19 18 14 5 9 7 4 3 4 6 10 13 15 17 19 20 20 22 23 23 23 23 24 24 24 26 27 27 28 24 21 24
Wind_Direction
245 221 358 215 221 233 227 167 22 37 84 112 75 66 81 88 90 97 107 118 124 131 141 139 150 158 153 152 157 166 177 244 247 225 196 184 199 137 148 148 74 43 72 68
231 230 107 184 239 230 239 216 28 41 67 73 54 71 71 86 92 106 110 119 124 126 138 141 147 156 161 166 169 173 181 200 203 203 194 159 157 144 135 61 91 85 57 67
235 298 260 264 246 271 255 296 322 322 92 101 52 31 52 66 104 109 121 125 130 124 129 139 145 151 155 164 163 169 169 175 183 176 166 152 151 119 1 53 40 63 76 72
250 261 310 266 277 299 284 334 307 154 162 162 128 87 335 69 93 121 128 130 123 123 124 134 140 146 150 158 163 166 161 169 173 171 174 152 134 130 133 115 120 115 109 95
229 252 266 283 286 306 280 314 138 186 191 203 166 61 18 52 77 162 147 136 132 131 131 128 142 145 148 151 157 160 163 170 170 168 178 172 177 142 143 166 148 111 126 115
202 227 284 281 295 288 221 220 199 202 178 183 18 348 336 148 172 149 158 140 136 132 134 133 140 147 149 151 159 161 160 164 166 166 169 181 183 177 193 193 229 151 166 111
173 180 168 143 200 190 189 193 223 214 236 259 42 340 359 141 156 154 146 142 135 132 134 140 139 143 147 158 162 163 165 167 166 167 171 174 185 178 190 200 174 191 153 53
186 135 95 115 198 273 248 249 154 176 227 139 347 354 14 79 205 185 154 142 127 130 132 135 146 148 155 160 169 172 172 171 167 166 170 179 177 183 185 195 206 222 222 337
316 315 2 51 257 241 251 251 286 243 193 94 332 351 348 268 164 201 156 145 111 117 138 132 146 157 161 167 169 171 174 172 172 173 170 174 180 180 182 188 193 205 219 207
227 240 172 89 107 166 229 264 259 264 296 282 324 320 354 194 230 80 86 62 63 79 79 75 83 153 144 153 162 161 164 166 172 171 171 176 182 191 195 201 206 208 255 281
262 249 48 187 348 285 301 252 263 280 257 319 313 328 41 21 242 258 203 69 69 59 57 32 23 20 26 60 122 134 126 131 155 168 171 177 188 194 200 211 230 233 230 235
247 269 246 144 45 1 265 260 242 254 279 294 308 343 358 312 341 343 201 219 74 58 48 44 39 39 36 36 45 91 113 126 132 152 156 179 183 190 198 204 211 208 207 250
271 251 249 274 312 318 285 313 282 267 267 354 316 334 347 350 48 182 175 148 68 66 61 57 51 42 41 44 49 54 49 68 104 129 157 170 180 188 200 205 283 203 198 221
274 251 258 251 33 17 287 320 298 277 268 315 353 4 82 128 111 161 185 132 85 75 77 62 55 53 50 49 50 60 67 60 73 51 23 112 133 111 150 183 201 201 227 293
258 245 255 260 299 306 295 283 287 275 280 284 345 22 78 170 161 183 138 98 90 85 68 67 60 54 60 41 46 39 11 358 0 11 15 5 6 359 348 331 322 315 313 317
245 239 258 266 275 285 283 300 295 271 271 276 290 307 344 99 137 99 93 99 89 84 72 60 49 62 51 35 28 10 1 9 8 10 3 360 359 353 350 339 326 317 312 308
323 276 252 263 284 286 283 304 304 298 295 277 278 295 345 354 6 25 38 72 93 85 41 34 49 49 43 28 17 14 13 11 10 9 2 358 356 350 347 340 335 332 325 316
279 290 290 280 282 280 284 294 307 296 292 292 286 289 322 323 353 345 348 357 96 76 51 43 43 45 34 23 11 8 4 2 360 355 351 347 344 338 334 336 341 338 332 328
269 276 280 287 287 280 277 303 293 298 294 303 297 293 328 350 354 347 17 66 71 64 59 62 38 24 22 16 7 2 1 358 354 350 347 344 339 333 331 329 327 323 322 331
273 274 273 279 274 267 276 283 328 311 279 283 294 309 317 358 329 349 24 58 70 80 79 45 29 27 14 6 3 1 357 353 347 344 340 336 330 328 326 324 328 327 323 324
273 272 272 272 274 269 280 283 309 303 303 314 331 330 328 327 320 126 97 86 91 80 60 50 34 18 8 1 0 358 354 348 346 343 339 334 330 326 328 331 330 328 330 327
267 271 273 273 274 261 272 291 283 301 322 320 313 323 347 6 73 106 105 95 80 60 50 32 20 8 358 353 355 353 350 347 345 343 342 342 340 337 335 333 336 340 345 344
264 265 272 275 282 293 287 279 293 315 297 320 342 339 4 70 97 108 103 99 74 59 49 33 15 9 6 360 352 349 350 351 348 350 346 346 346 344 343 340 339 344 344 344
268 268 266 271 273 284 294 291 296 291 306 302 324 328 95 118 125 107 101 94 81 60 30 26 19 8 359 355 352 352 351 355 353 351 354 354 351 349 345 339 342 340 341 342
270 276 274 269 276 270 276 285 294 286 284 300 289 303 224 182 165 147 122 85 60 35 20 4 359 352 349 345 346 348 350 351 353 355 356 350 344 341 338 342 340 344 351 350
268 270 277 278 295 285 272 273 282 282 285 285 287 279 297 203 172 160 144 85 44 16 9 355 354 352 349 348 348 348 348 354 354 357 356 356 351 346 343 340 336 348 355 354